This demonstration page uses our WeatherBlox Daily Observations layout. Learn more.

Left ArrowRight Arrow

41.86663, -103.66717

Hourly Observations for September 27, 2022

Temp ( °F °C ) Dew Point ( °F °C ) Humidity (%) Winds ( mph kmh ) Pressure ( in mb ) Visibility ( mi km ) Precip ( " mm )
12:53 am 00:53 Clear 52 11.1 40 4.4 63 63 NNW 5 7 30.15 1021 10 16 0.00 0.00
1:53 am 01:53 Clear 52 11.1 40 4.4 63 63 NNW 8 13 30.15 1021 10 16 0.00 0.00
2:53 am 02:53 Clear 48 8.9 40 4.4 73 73 NW 6 9 30.16 1021 10 16 0.00 0.00
3:53 am 03:53 Clear 47 8.3 40 4.4 76 76 NNW 7 11 30.15 1021 10 16 0.00 0.00
4:53 am 04:53 Clear 46 7.8 39 3.9 76 76 NW 3 6 30.16 1021 10 16 0.00 0.00
5:53 am 05:53 Clear 43 6.1 39 3.9 86 86 NW 6 9 30.18 1022 10 16 0.00 0.00
6:53 am 06:53 Sunny 44 6.7 38 3.3 79 79 NNW 6 9 30.21 1023 10 16 0.00 0.00
7:53 am 07:53 Sunny 50 10 40 4.4 68 68 NW 3 6 30.23 1024 10 16 0.00 0.00
8:53 am 08:53 Sunny 58 14.4 41 5 53 53 Calm 30.22 1024 10 16 0.00 0.00
9:53 am 09:53 Sunny 64 17.8 40 4.4 41 41 VRB 5 7 30.23 1024 10 16 0.00 0.00
10:53 am 10:53 Sunny 68 20 40 4.4 36 36 SE 6 9 30.22 1024 10 16 0.00 0.00
11:53 am 11:53 Sunny 73 22.8 39 3.9 29 29 E 5 7 30.21 1023 10 16 0.00 0.00
12:53 pm 12:53 Sunny 74 23.3 39 3.9 28 28 SE 6 9 30.19 1023 10 16 0.00 0.00
1:53 pm 13:53 Sunny 76 24.4 39 3.9 26 26 SE 6 9 30.17 1022 10 16 0.00 0.00
2:53 pm 14:53 Sunny 78 25.6 39 3.9 25 25 SE 8 13 30.15 1021 10 16 0.00 0.00
3:53 pm 15:53 Sunny 78 25.6 38 3.3 24 24 ESE 9 15 30.15 1021 10 16 0.00 0.00
4:53 pm 16:53 Sunny 79 26.1 38 3.3 23 23 ESE 12 19 30.15 1021 10 16 0.00 0.00
5:53 pm 17:53 Sunny 76 24.4 40 4.4 27 27 E 9 15 30.16 1021 10 16 0.00 0.00
6:53 pm 18:53 Clear 66 18.9 43 6.1 43 43 E 6 9 30.19 1022 10 16 0.00 0.00
7:53 pm 19:53 Clear 63 17.2 43 6.1 48 48 ESE 8 13 30.18 1022 10 16 0.00 0.00
8:53 pm 20:53 Clear 62 16.7 42 5.6 48 48 ESE 8 13 30.19 1022 10 16 0.00 0.00
9:53 pm 21:53 Clear 60 15.6 41 5 49 49 ESE 10 17 30.19 1022 10 16 0.00 0.00
10:53 pm 22:53 Clear 57 13.9 41 5 55 55 ESE 12 19 30.19 1023 10 16 0.00 0.00
11:53 pm 23:53 Clear 56 13.3 39 3.9 53 53 ESE 10 17 30.20 1023 10 16 0.00 0.00

Powered by AerisWeather